Home > Weather > Passau > Past weeks

Flag for Germany Past Weather in Passau, Bavaria, Germany — Yesterday and Last 2 Weeks

Now
62 °F

Cool.


Feels Like: 62 °F
Forecast: 56 / 76 °F
Wind: 1 mph from Northwest

Location: Rohrbach

Current Time: Jul 28, 2016 at 5:03:20 AM

Latest Report: Jul 28, 2016 at 4:00 AM


Visibility: N/A

Pressure: 30.05 "Hg

Humidity: 96%

Dew Point: 60 °F

Location of PassauLocation

Past Weather in Passau — Graph

°F

Passau Temperature Yesterday

Maximum temperature yesterday: 75 °F (at 2:00 PM)
Minimum temperature yesterday: 61 °F (at 6:00 AM)
Average temperature yesterday: 66 °F

High & Low Weather Summary for the Past Weeks

 TemperatureHumidityPressure
High80 °F (Jul 23, 3:00 PM)100% (Jul 18, 4:00 AM)30.30 "Hg (Jul 18, 4:00 AM)
Low49 °F (Jul 15, 6:00 AM)48% (Jul 18, 6:00 PM)29.87 "Hg (Jul 13, 7:00 PM)
Average65 °F80%30.06 "Hg
* Reported Jul 13 3:00 AM — Jul 28 3:00 AM, Passau, Weather by CustomWeather, © 2016

Note: Actual official high and low records may vary slightly from our data, if they occured in-between our weather recording intervals... More about our weather records

Advertising

Passau Weather History for the Previous 24 Hours

Scroll right to see more
 ConditionsComfort  
Time TempWeatherWind HumidityBarometerVisibility
3:00 AM
Thu, Jul 28
61 °FCool.1 mph97%30.05 "HgN/A
2:00 AM62 °FCool.1 mph96%30.06 "HgN/A
1:00 AM62 °FCool.1 mph97%30.06 "HgN/A
12:00 AM62 °FSprinkles. Overcast.1 mph97%30.05 "HgN/A
11:00 PM
Wed, Jul 27
62 °FCool.1 mph96%30.04 "HgN/A
10:00 PM63 °FFog.2 mph92%30.02 "HgN/A
9:00 PM62 °FFog.No wind93%30.01 "HgN/A
8:00 PM63 °FMild.1 mph93%30.00 "HgN/A
7:00 PM67 °FFog.5 mph81%29.96 "HgN/A
6:00 PM72 °FMild.1 mph73%29.92 "HgN/A
5:00 PM70 °FMild.1 mph81%29.94 "HgN/A
4:00 PM66 °FMild.1 mph91%29.98 "HgN/A
3:00 PM63 °FMild.5 mph89%30.01 "HgN/A
2:00 PM75 °FMild.2 mph59%29.95 "HgN/A
1:00 PM74 °FMild.2 mph74%29.97 "HgN/A
12:00 PM74 °FMild.1 mph71%29.99 "HgN/A
11:00 AM72 °FMild.2 mph76%30.00 "HgN/A
10:00 AM71 °FMild.1 mph77%30.01 "HgN/A
9:00 AM65 °FMild.1 mph92%30.03 "HgN/A
8:00 AM63 °FMild.1 mph92%30.05 "HgN/A
7:00 AM62 °FCool.No wind93%30.06 "HgN/A
6:00 AM61 °FCool.1 mph95%30.06 "HgN/A
5:00 AM61 °FCool.1 mph94%30.06 "HgN/A
Weather by CustomWeather, © 2016

See weather overviewHow to use our weather pages